Location: Champaign/Urbana Astronomical Society Observatory
(40.0333°N, 88.2833°W)
Time: 13:20:43
(UTC-06:00)

Envisat - Visible Passes

Search period start: 16 February 2019 00:00
Search period end: 26 February 2019 00:00
Orbit: 764 x 766 km, 98.2° (Epoch: 16 February)

Date Brightness Start Highest point End Pass type
(mag) Time Alt. Az. Time Alt. Az. Time Alt. Az.
16 Feb 3.1 18:40:27 10° S 18:45:31 80° WSW 18:50:38 10° NNW visible
17 Feb 3.3 18:04:03 10° SE 18:08:52 46° ENE 18:13:43 10° N visible
17 Feb 5.6 19:44:27 10° SW 19:48:06 20° W 19:51:46 10° NW visible
18 Feb 4.2 19:06:17 10° S 19:11:06 44° W 19:15:58 10° NNW visible
19 Feb 2.9 18:29:15 10° SSE 18:34:19 82° ENE 18:39:26 10° N visible
19 Feb 6.2 20:12:50 10° W 20:13:55 11° W 20:15:01 10° WNW visible
20 Feb 5.2 19:32:39 10° SSW 19:36:48 25° W 19:40:58 10° NW visible
21 Feb 6.4 06:04:21 10° ENE 06:06:37 13° E 06:08:52 10° ESE visible
21 Feb 3.7 18:54:54 10° S 18:59:52 57° W 19:04:53 10° NNW visible
22 Feb 3.0 18:18:07 10° SSE 18:23:08 64° ENE 18:28:10 10° N visible
22 Feb 6.0 19:59:58 10° WSW 20:02:35 14° W 20:05:12 10° WNW visible
23 Feb 4.8 19:21:01 10° SSW 19:25:30 32° W 19:30:02 10° NNW visible
24 Feb 3.3 18:43:35 10° S 18:48:38 73° WSW 18:53:44 10° NNW visible
25 Feb 3.2 18:07:04 10° SSE 18:11:58 50° ENE 18:16:53 10° N visible
25 Feb 5.7 19:47:50 10° SW 19:51:15 18° W 19:54:41 10° NW visible
